Location: Unspecified
(50.7693°N, 0.0000°E)
Time: 03:37:55
(UTC+00:00)

SR - Pass Details

Date: 28 June 2019
Orbit: 580 x 876 km, 66.7° (Epoch: 22 July)

Event Time Altitude Azimuth Distance (km) Brightness Sun altitude
Rises 01:35:25 0° 181° (S) 2,786 - -13.2°
Reaches altitude 10° 01:37:55 10° 167° (SSE) 1,893 - -13.0°
Exits shadow 01:38:30 13° 162° (SSE) 1,714 ? -13.0°
Maximum altitude 01:41:20 24° 113° (ESE) 1,225 ? -12.8°
Drops below altitude 10° 01:44:51 10° 59° (ENE) 1,951 ? -12.6°
Sets 01:47:28 0° 46° (NE) 2,895 ? -12.4°
